| time (UTC) | temp C | wind direction | speed KPH | gust KPH | rain 1hr cm | rain 24hr cm | rain mn cm | humidity % | barometer mb |
| 20260506120720 | 11 | 195 | 27.4 | 41.8 | 0.00 | 0.00 | 0.00 | 42 | 1013.6 |
| 20260506114721 | 10 | 187 | 17.7 | 33.8 | 0.00 | 0.00 | 0.00 | 50 | 1013.7 |
| 20260506112720 | 10 | 215 | 19.3 | 33.8 | 0.00 | 0.00 | 0.00 | 48 | 1013.7 |
| 20260506110721 | 10 | 302 | 9.7 | 19.3 | 0.00 | 0.00 | 0.00 | 28 | 1013.7 |
| 20260506104721 | 12 | 233 | 12.9 | 29.0 | 0.00 | 0.00 | 0.00 | 26 | 1013.5 |
| 20260506102721 | 10 | 272 | 12.9 | 25.7 | 0.00 | 0.00 | 0.00 | 28 | 1013.5 |
| 20260506100721 | 11 | 293 | 9.7 | 19.3 | 0.00 | 0.00 | 0.00 | 29 | 1013.4 |
| 20260506094721 | 10 | 314 | 14.5 | 24.1 | 0.00 | 0.00 | 0.00 | 30 | 1013.3 |
| 20260506092720 | 9 | 311 | 14.5 | 27.4 | 0.00 | 0.00 | 0.00 | 31 | 1013.3 |
| 20260506090720 | 10 | 272 | 14.5 | 25.7 | 0.00 | 0.00 | 0.00 | 32 | 1013.1 |
| 20260506084721 | 10 | 267 | 16.1 | 29.0 | 0.00 | 0.00 | 0.00 | 31 | 1013.0 |
| 20260506082721 | 9 | 255 | 11.3 | 20.9 | 0.00 | 0.00 | 0.00 | 33 | 1013.1 |
| 20260506080720 | 8 | 276 | 12.9 | 25.7 | 0.00 | 0.00 | 0.00 | 36 | 1013.0 |
| 20260506072721 | 8 | 286 | 17.7 | 27.4 | 0.00 | 0.00 | 0.00 | 44 | 1012.7 |
| 20260506070720 | 8 | 313 | 16.1 | 29.0 | 0.00 | 0.00 | 0.00 | 46 | 1012.6 |
| 20260506060720 | 6 | 290 | 16.1 | 22.5 | 0.00 | 0.00 | 0.00 | 58 | 1012.3 |
| 20260506050720 | 4 | 273 | 14.5 | 20.9 | 0.00 | 0.00 | 0.00 | 68 | 1011.7 |
| 20260506044720 | 4 | 282 | 16.1 | 24.1 | 0.00 | 0.00 | 0.00 | 71 | 1011.5 |
| 20260506042720 | 3 | 279 | 12.9 | 20.9 | 0.00 | 0.00 | 0.00 | 73 | 1011.4 |
| 20260506040719 | 3 | 279 | 12.9 | 20.9 | 0.00 | 0.00 | 0.00 | 76 | 1011.3 |
| 20260506034720 | 2 | 275 | 12.9 | 19.3 | 0.00 | 0.00 | 0.00 | 78 | 1011.1 |
| 20260506032719 | 2 | 269 | 14.5 | 19.3 | 0.00 | 0.00 | 0.00 | 79 | 1010.9 |
| 20260506030720 | 1 | 266 | 11.3 | 16.1 | 0.00 | 0.00 | 0.00 | 80 | 1010.7 |
| 20260506024719 | 1 | 266 | 11.3 | 16.1 | 0.00 | 0.00 | 0.00 | 82 | 1010.5 |
| 20260506022719 | 1 | 266 | 11.3 | 16.1 | 0.00 | 0.00 | 0.00 | 82 | 1010.3 |
| 20260506020719 | 1 | 271 | 9.7 | 14.5 | 0.00 | 0.00 | 0.00 | 82 | 1010.1 |
| 20260506014719 | 1 | 285 | 14.5 | 17.7 | 0.00 | 0.00 | 0.00 | 79 | 1010.0 |
| 20260506012719 | 1 | 277 | 11.3 | 17.7 | 0.00 | 0.00 | 0.00 | 79 | 1009.9 |
| 20260506010719 | 1 | 276 | 12.9 | 17.7 | 0.00 | 0.00 | 0.00 | 79 | 1009.8 |
| 20260506004719 | 1 | 273 | 11.3 | 17.7 | 0.00 | 0.00 | 0.00 | 79 | 1009.5 |
| 20260506002719 | 1 | 271 | 12.9 | 17.7 | 0.00 | 0.00 | 0.00 | 79 | 1009.4 |
| 20260506000719 | 2 | 268 | 11.3 | 16.1 | 0.00 | 0.00 | 0.00 | 78 | 1009.4 |
| 20260505234719 | 2 | 267 | 11.3 | 16.1 | 0.00 | 0.00 | 0.00 | 77 | 1009.2 |
| 20260505232719 | 2 | 263 | 12.9 | 17.7 | 0.00 | 0.00 | 0.00 | 76 | 1009.1 |
| 20260505230719 | 2 | 267 | 12.9 | 17.7 | 0.00 | 0.00 | 0.00 | 74 | 1009.0 |
| 20260505224719 | 3 | 270 | 12.9 | 17.7 | 0.00 | 0.00 | 0.00 | 72 | 1008.8 |
| 20260505222718 | 3 | 280 | 12.9 | 19.3 | 0.00 | 0.00 | 0.00 | 70 | 1008.7 |
| 20260505220719 | 3 | 273 | 12.9 | 17.7 | 0.00 | 0.00 | 0.00 | 69 | 1008.6 |
| 20260505214719 | 4 | 265 | 12.9 | 19.3 | 0.00 | 0.00 | 0.00 | 66 | 1008.5 |
| 20260505212718 | 4 | 264 | 12.9 | 17.7 | 0.00 | 0.00 | 0.00 | 63 | 1008.3 |
| 20260505210718 | 4 | 258 | 12.9 | 20.9 | 0.00 | 0.00 | 0.00 | 62 | 1008.1 |
| 20260505204718 | 5 | 264 | 12.9 | 22.5 | 0.00 | 0.00 | 0.00 | 60 | 1007.9 |
| 20260505202719 | 5 | 268 | 14.5 | 20.9 | 0.00 | 0.00 | 0.00 | 58 | 1007.6 |
| 20260505200718 | 5 | 274 | 16.1 | 22.5 | 0.00 | 0.00 | 0.00 | 55 | 1007.4 |
| 20260505194718 | 6 | 269 | 17.7 | 25.7 | 0.00 | 0.00 | 0.00 | 52 | 1007.3 |
| 20260505192718 | 6 | 260 | 16.1 | 25.7 | 0.00 | 0.00 | 0.00 | 48 | 1007.2 |
| 20260505190718 | 6 | 257 | 12.9 | 19.3 | 0.00 | 0.00 | 0.00 | 44 | 1007.0 |
| 20260505184718 | 7 | 262 | 14.5 | 25.7 | 0.00 | 0.00 | 0.00 | 42 | 1006.8 |
| 20260505182718 | 7 | 263 | 17.7 | 27.4 | 0.00 | 0.00 | 0.00 | 40 | 1006.5 |
| 20260505180717 | 8 | 259 | 17.7 | 30.6 | 0.00 | 0.00 | 0.00 | 39 | 1006.3 |
| 20260505174718 | 8 | 260 | 20.9 | 33.8 | 0.00 | 0.00 | 0.00 | 39 | 1006.1 |
| 20260505172717 | 8 | 272 | 22.5 | 35.4 | 0.00 | 0.00 | 0.00 | 37 | 1006.0 |
| 20260505170717 | 8 | 264 | 24.1 | 38.6 | 0.00 | 0.00 | 0.00 | 36 | 1005.9 |
| 20260505164717 | 9 | 270 | 24.1 | 37.0 | 0.00 | 0.00 | 0.00 | 36 | 1005.8 |
| 20260505162717 | 10 | 266 | 24.1 | 33.8 | 0.00 | 0.00 | 0.00 | 34 | 1005.7 |
| 20260505160717 | 10 | 255 | 27.4 | 40.2 | 0.00 | 0.00 | 0.00 | 30 | 1005.5 |
| 20260505152717 | 10 | 262 | 24.1 | 40.2 | 0.00 | 0.00 | 0.00 | 33 | 1005.2 |
| 20260505150717 | 11 | 267 | 22.5 | 35.4 | 0.00 | 0.00 | 0.00 | 31 | 1005.1 |
| 20260505124716 | 11 | 292 | 24.1 | 35.4 | 0.00 | 0.00 | 0.00 | 40 | 1004.6 |
| 20260505122716 | 10 | 297 | 24.1 | 32.2 | 0.00 | 0.00 | 0.00 | 45 | 1004.4 |